Regional Weather Roundup
Issued by NWS

Home | Current Version | Previous Version | Graphics & Text | Print | Product List | Glossary On
Versions: 1 2 3 4 5 6 7 8 9 10 11 12 13 14 15 16 17 18 19 20 21 22 23 24 25 26 27 28 29 30 31 32 33 34 35 36 37 38 39 40 41 42 43 44 45 46 47 48 49 50
000
ASUS45 KBOU 010807
RWRCO

WEATHER ROUNDUP FOR COLORADO
NATIONAL WEATHER SERVICE DENVER/BOULDER CO
200 AM MDT WED APR 01 2015

NOTE: "FAIR" INDICATES FEW OR NO CLOUDS BELOW 12000 FEET WITH NO
SIGNIFICANT WEATHER AND/OR OBSTRUCTIONS TO VISIBILITY.

COZ001>005-013-030-031-010900-
...NORTHWEST COLORADO...

CITY           SKY/WX    TMP DP  RH WIND       PRES   REMARKS
CRAIG          PTCLDY    40  22  48 CALM      29.83F
HAYDEN         MOCLDY    52  18  25 S6        29.85F
MEEKER         PTCLDY    48  19  31 CALM      29.85F
MOUNT WERNER   NOT AVBL
STEAMBOAT SPGS MOCLDY    49  24  37 E7        29.87F
WALDEN         PTCLDY    36  23  60 E3        29.92S
$$

COZ006>008-011-010900-
...WEST CENTRAL VALLEYS...

CITY           SKY/WX    TMP DP  RH WIND       PRES   REMARKS
GRAND JUNCTION PTCLDY    55  19  24 E10       29.82S
MONTROSE       MOCLDY    53  23  31 E5        29.92S
EAGLE          PTCLDY    43  25  49 CALM      29.93S
RIFLE          CLEAR     46  23  40 SW3       29.85S
DELTA          MOCLDY    54  29  39 N6        29.88F
NUCLA          MOCLDY    54  19  26 SE5       29.96S
$$

COZ017>023-064>068-010900-
...SOUTHWEST COLORADO...

CITY           SKY/WX    TMP DP  RH WIND       PRES   REMARKS
DURANGO        CLOUDY    48  26  42 CALM      30.00F
CORTEZ         CLOUDY    59  23  25 S8G21     29.97S
PAGOSA SPRINGS CLOUDY    41  22  46 E5        30.05F
TELLURIDE      NOT AVBL
WOLF CREEK PAS CLOUDY    32  18  55 SW35G45   30.21F WCI  17
$$

COZ009-010-012-014-032>034-037-058>063-010900-
...CENTRAL COLORADO...

CITY           SKY/WX    TMP DP  RH WIND       PRES   REMARKS
ASPEN            N/A     43  22  43 MISG      29.96F
BUENA VISTA    PTCLDY    35  24  63 W7        29.99F WCI  29
COPPER MTN     PTCLDY    37  12  35 SW13G22   30.14F
BERTHOUD PASS  FAIR      30  23  74 W29G49    30.11F WCI  15
COTTONWOOD PAS PTCLDY    46  12  25 CALM      30.06S
GUNNISON       PTCLDY    34  23  64 N5        30.05F WCI  30
KREMMLING      MOCLDY    34  27  75 CALM      29.94F
LEADVILLE      NOT AVBL
SALIDA         PTCLDY    48  19  30 W5        30.04F
SUNLIGHT       PTCLDY    37  21  52 CALM      30.10S
WILKERSON PASS PTCLDY    34  18  51 SW7G17    30.13F WCI  28
$$

COZ069>075-010900-
...SAN LUIS VALLEY/SANGRE DE CRISTO MOUNTAINS...

CITY           SKY/WX    TMP DP  RH WIND       PRES   REMARKS
ALAMOSA        PTCLDY    35  19  52 CALM      30.02F
LA VETA PASS   CLEAR     36  19  51 S10       30.10F
SAGUACHE       PTCLDY    37  21  52 N12       30.03F
$$

COZ035-036-038>040-010900-
...NORTHERN COLORADO FRONT RANGE...

CITY           SKY/WX    TMP DP  RH WIND       PRES   REMARKS
DENVER INTL AP PTCLDY    54  24  31 S14       29.78F
DMNS CITY PARK   N/A     56  22  26 SW6G12    29.78S
AURORA         PTCLDY    50  25  36 S15       29.80F
FRONT RANGE AP CLEAR     55  27  33 S15       29.79F
ERIE MUNI ARPT CLEAR     49  23  35 S7        29.76F
BOULDER MUN AP CLEAR     55  21  26 S5        29.76F
CENTENNIAL     PTCLDY    55  22  27 SW12      29.82S
BROOMFIELD     CLEAR     52  21  30 SW7       29.80S
FORT COLLINS   PTCLDY    52  21  30 NE5       29.75F
LONGMONT       PTCLDY    49  25  40 W3        29.77F
$$

COZ041-046-047-076>085-087-088-010900-
...PIKES PEAK/PALMER DIVIDE AND SOUTHERN FOOTHILLS...

CITY           SKY/WX    TMP DP  RH WIND       PRES   REMARKS
COLO. SPRINGS  PTCLDY    46  22  38 VRB5      29.87F
A. F. ACADEMY  CLEAR     43  23  45 NE8       29.87F
ELLICOTT       NOT AVBL
FALCON         PTCLDY    42  22  44 W7        29.91F
FORT CARSON    PTCLDY    53  22  30 W1        29.84F
LIMON          CLEAR     36  25  64 CALM      29.83F
MONUMENT HILL  PTCLDY    46  21  36 SW7       29.89F
TRINIDAD       CLEAR     52  20  28 SW16      29.88F
$$

COZ042>045-048>051-090-091-010900-
...NORTHEAST COLORADO...

CITY           SKY/WX    TMP DP  RH WIND       PRES   REMARKS
GREELEY ARPT   CLEAR     39  18  41 NW6       29.73S
AKRON          CLEAR     59  27  29 S21G33    29.74F
BURLINGTON     CLEAR     55  41  59 S17       29.79F
WRAY           CLEAR     60  37  42 S17G25    29.74F
STERLING       CLEAR     46  27  46 SW7       29.71F
HOLYOKE        NOT AVBL
FORT MORGAN    CLEAR     50 -41   2 W6        29.74F
$$

COZ086-089-092>099-010900-
...SOUTHEAST COLORADO...

CITY           SKY/WX    TMP DP  RH WIND       PRES   REMARKS
PUEBLO         CLEAR     47  26  44 CALM      29.80F
LA JUNTA       CLEAR     54  24  31 VRB3      29.80F
LAMAR          CLEAR     55  39  54 NW7       29.77S
SPRINGFIELD      N/A     44  33  65 SW7       29.83F
$$


USA.gov is the U.S. government's official web portal to all federal, state and local government web resources and services.